AT784 Weather Reports


Display with metric or nautical units.
time (UTC)temp
F
wind
direction
speed
MPH
gust
MPH
rain 1hr
in
rain 24hr
in
rain mn
in
humidity
%
barometer
mb
20260504050705 56 197 5.0 13.0 0.00 0.00 0.00 71 1003.8
20260504050605 56 199 5.0 13.0 0.00 0.00 0.00 70 1003.8
20260504050505 56 200 5.0 14.0 0.00 0.00 0.00 71 1003.8
20260504050404 56 200 5.0 14.0 0.00 0.00 0.00 71 1003.8
20260504050305 56 201 5.0 14.0 0.00 0.00 0.00 70 1003.8
20260504050204 56 207 5.0 15.0 0.00 0.00 0.00 70 1003.8
20260504050126 56 205 5.0 15.0 0.00 0.00 0.00 70 1003.8
20260504050005 56 207 5.0 15.0 0.00 0.00 0.00 70 1003.8
20260504045905 56 209 5.0 15.0 0.00 0.00 0.00 70 1003.8
20260504045825 56 211 5.0 15.0 0.00 0.00 0.00 70 1003.8
20260504045705 56 209 5.0 15.0 0.00 0.00 0.00 70 1003.8
20260504045625 56 209 5.0 15.0 0.00 0.00 0.00 70 1003.8
20260504045505 56 212 5.0 15.0 0.00 0.00 0.00 70 1003.8
20260504045404 56 213 5.0 15.0 0.00 0.00 0.00 70 1003.8
20260504045304 56 211 5.0 15.0 0.00 0.00 0.00 70 1003.8
20260504045225 56 211 5.0 14.0 0.00 0.00 0.00 70 1003.9
20260504045105 56 213 5.0 13.0 0.00 0.00 0.00 70 1003.9
20260504045005 56 217 5.0 13.0 0.00 0.00 0.00 70 1003.9
20260504044904 56 214 5.0 13.0 0.00 0.00 0.00 70 1003.8
20260504044804 56 213 5.0 13.0 0.00 0.00 0.00 70 1003.8
20260504044705 56 213 5.0 13.0 0.00 0.00 0.00 70 1003.9
20260504044605 56 209 5.0 13.0 0.00 0.00 0.00 70 1003.8
20260504044505 56 205 5.0 13.0 0.00 0.00 0.00 70 1003.8
20260504044404 56 201 4.0 11.0 0.00 0.00 0.00 70 1003.9
20260504044304 56 201 5.0 11.0 0.00 0.00 0.00 70 1003.9
20260504044205 56 200 5.0 11.0 0.00 0.00 0.00 70 1004.0
20260504044105 56 199 5.0 11.0 0.00 0.00 0.00 70 1003.9
20260504044005 56 196 5.0 11.0 0.00 0.00 0.00 70 1003.9
20260504043905 56 198 4.0 10.0 0.00 0.00 0.00 70 1003.9
20260504043804 56 197 5.0 11.0 0.00 0.00 0.00 70 1003.9
20260504043704 56 198 5.0 14.0 0.00 0.00 0.00 70 1003.9
20260504043605 56 202 5.0 16.0 0.00 0.00 0.00 70 1004.0
20260504043504 56 202 5.0 16.0 0.00 0.00 0.00 70 1004.0
20260504043426 56 203 5.0 16.0 0.00 0.00 0.00 70 1004.1
20260504043304 56 207 5.0 16.0 0.00 0.00 0.00 70 1004.0
20260504043204 56 205 5.0 16.0 0.00 0.00 0.00 70 1004.0
20260504043105 56 208 6.0 16.0 0.00 0.00 0.00 70 1004.0
20260504043025 56 205 6.0 16.0 0.00 0.00 0.00 70 1004.0
20260504042904 56 204 6.0 16.0 0.00 0.00 0.00 70 1004.0
20260504042804 56 204 6.0 16.0 0.00 0.00 0.00 70 1004.0
20260504042704 56 203 6.0 16.0 0.00 0.00 0.00 70 1004.0
20260504042604 56 203 5.0 15.0 0.00 0.00 0.00 70 1004.1
20260504042504 56 204 5.0 12.0 0.00 0.00 0.00 70 1004.1
20260504042404 56 204 5.0 12.0 0.00 0.00 0.00 70 1004.2
20260504042304 56 203 5.0 12.0 0.00 0.00 0.00 70 1004.2
20260504042205 56 207 5.0 12.0 0.00 0.00 0.00 70 1004.2
20260504042104 56 204 5.0 12.0 0.00 0.00 0.00 70 1004.1
20260504042004 56 204 5.0 12.0 0.00 0.00 0.00 70 1004.1
20260504041904 56 208 5.0 12.0 0.00 0.00 0.00 70 1004.1
20260504041804 56 211 4.0 16.0 0.00 0.00 0.00 70 1004.2
20260504041704 56 213 4.0 16.0 0.00 0.00 0.00 70 1004.2
20260504041605 56 215 4.0 16.0 0.00 0.00 0.00 70 1004.2
20260504041504 56 214 5.0 16.0 0.00 0.00 0.00 70 1004.2
20260504041404 56 210 4.0 16.0 0.00 0.00 0.00 70 1004.2
20260504041325 56 206 4.0 16.0 0.00 0.00 0.00 70 1004.3
20260504041205 56 202 4.0 16.0 0.00 0.00 0.00 70 1004.3
20260504041105 56 204 5.0 16.0 0.00 0.00 0.00 70 1004.3
20260504041004 56 204 5.0 16.0 0.00 0.00 0.00 70 1004.2
20260504040904 56 201 4.0 16.0 0.00 0.00 0.00 70 1004.2
20260504040804 56 196 4.0 13.0 0.00 0.00 0.00 70 1004.3
20260504040704 56 196 4.0 13.0 0.00 0.00 0.00 70 1004.3
20260504040626 56 194 4.0 13.0 0.00 0.00 0.00 70 1004.3
20260504040504 55 193 4.0 13.0 0.00 0.00 0.00 70 1004.3
20260504040404 55 199 4.0 13.0 0.00 0.00 0.00 70 1004.3
20260504040304 55 202 4.0 13.0 0.00 0.00 0.00 70 1004.4
20260504040204 55 203 4.0 13.0 0.00 0.00 0.00 70 1004.4
20260504040126 55 203 4.0 13.0 0.00 0.00 0.00 70 1004.3
20260504040006 55 203 4.0 11.0 0.00 0.00 0.00 70 1004.3
20260504035926 55 201 4.0 11.0 0.00 0.00 0.00 70 1004.3
20260504035804 56 203 4.0 11.0 0.00 0.00 0.00 70 1004.3
20260504035704 56 202 4.0 11.0 0.00 0.00 0.00 70 1004.4
20260504035605 56 205 4.0 11.0 0.00 0.00 0.00 70 1004.4
20260504035504 55 203 4.0 11.0 0.00 0.00 0.00 70 1004.4
20260504035405 55 199 4.0 11.0 0.00 0.00 0.00 70 1004.4
20260504035305 55 198 4.0 9.0 0.00 0.00 0.00 70 1004.4
20260504035204 55 201 4.0 9.0 0.00 0.00 0.00 70 1004.4
20260504035104 55 197 4.0 9.0 0.00 0.00 0.00 70 1004.4
20260504035004 56 198 4.0 9.0 0.00 0.00 0.00 70 1004.4
20260504034904 56 200 4.0 9.0 0.00 0.00 0.00 70 1004.5
20260504034804 56 199 4.0 9.0 0.00 0.00 0.00 70 1004.4
20260504034704 56 200 4.0 9.0 0.00 0.00 0.00 69 1004.4
20260504034605 56 194 4.0 9.0 0.00 0.00 0.00 69 1004.5
20260504034505 56 193 4.0 11.0 0.00 0.00 0.00 69 1004.5
20260504034405 56 194 4.0 11.0 0.00 0.00 0.00 69 1004.5
20260504034304 56 195 3.0 11.0 0.00 0.00 0.00 69 1004.5
20260504034225 56 194 3.0 11.0 0.00 0.00 0.00 69 1004.5
20260504034105 56 195 3.0 12.0 0.00 0.00 0.00 69 1004.5
20260504034004 56 193 3.0 12.0 0.00 0.00 0.00 69 1004.5
20260504033926 56 195 3.0 12.0 0.00 0.00 0.00 69 1004.5
20260504033804 56 194 4.0 12.0 0.00 0.00 0.00 69 1004.5
20260504033725 56 193 4.0 12.0 0.00 0.00 0.00 69 1004.5
20260504033605 56 198 4.0 12.0 0.00 0.00 0.00 69 1004.5
20260504033504 56 199 4.0 12.0 0.00 0.00 0.00 69 1004.5
20260504033404 56 196 4.0 15.0 0.00 0.00 0.00 69 1004.5
20260504033304 56 196 4.0 15.0 0.00 0.00 0.00 69 1004.5
20260504033204 56 200 4.0 15.0 0.00 0.00 0.00 69 1004.5
20260504033104 56 194 4.0 15.0 0.00 0.00 0.00 69 1004.5
20260504033005 56 195 4.0 15.0 0.00 0.00 0.00 69 1004.5
20260504032904 56 194 4.0 15.0 0.00 0.00 0.00 69 1004.5
20260504032804 56 195 3.0 15.0 0.00 0.00 0.00 69 1004.5
20260504032704 56 194 3.0 15.0 0.00 0.00 0.00 69 1004.5
20260504032604 56 195 3.0 15.0 0.00 0.00 0.00 69 1004.5
20260504032504 56 195 3.0 15.0 0.00 0.00 0.00 69 1004.5
20260504032425 56 196 3.0 15.0 0.00 0.00 0.00 69 1004.5
20260504032304 56 197 3.0 10.0 0.00 0.00 0.00 69 1004.5
20260504032204 56 191 2.0 10.0 0.00 0.00 0.00 69 1004.5
20260504032104 56 198 2.0 10.0 0.00 0.00 0.00 69 1004.5
20260504032004 56 198 2.0 10.0 0.00 0.00 0.00 68 1004.6
20260504031925 56 200 2.0 10.0 0.00 0.00 0.00 68 1004.6
20260504031804 56 200 2.0 10.0 0.00 0.00 0.00 68 1004.5
20260504031704 56 204 2.0 10.0 0.00 0.00 0.00 68 1004.5
20260504031605 56 200 2.0 10.0 0.00 0.00 0.00 68 1004.5
20260504031505 56 202 2.0 10.0 0.00 0.00 0.00 68 1004.5
20260504031404 56 202 2.0 10.0 0.00 0.00 0.00 68 1004.5
20260504031304 56 202 2.0 10.0 0.00 0.00 0.00 68 1004.5
20260504031204 56 200 2.0 10.0 0.00 0.00 0.00 68 1004.5
20260504031104 56 197 3.0 10.0 0.00 0.00 0.00 67 1004.5
20260504031004 56 195 3.0 10.0 0.00 0.00 0.00 67 1004.6
20260504030904 56 193 3.0 10.0 0.00 0.00 0.00 67 1004.6
20260504030804 56 195 3.0 9.0 0.00 0.00 0.00 67 1004.5
20260504030725 56 187 3.0 9.0 0.00 0.00 0.00 67 1004.5
20260504030626 56 186 3.0 9.0 0.00 0.00 0.00 67 1004.5
20260504030504 56 191 3.0 9.0 0.00 0.00 0.00 67 1004.5
20260504030425 56 190 3.0 9.0 0.00 0.00 0.00 67 1004.5
20260504030304 56 193 3.0 11.0 0.00 0.00 0.00 67 1004.5
20260504030204 56 195 3.0 11.0 0.00 0.00 0.00 67 1004.5
20260504030125 56 196 3.0 11.0 0.00 0.00 0.00 67 1004.5
20260504030025 56 195 3.0 11.0 0.00 0.00 0.00 67 1004.6
20260504025904 56 198 3.0 11.0 0.00 0.00 0.00 67 1004.5
20260504025804 56 194 3.0 11.0 0.00 0.00 0.00 67 1004.5
20260504025704 56 198 3.0 11.0 0.00 0.00 0.00 67 1004.6
20260504025604 56 200 2.0 11.0 0.00 0.00 0.00 67 1004.6
20260504025504 56 196 3.0 11.0 0.00 0.00 0.00 67 1004.5
20260504025404 56 201 3.0 11.0 0.00 0.00 0.00 67 1004.5
20260504025304 56 197 3.0 10.0 0.00 0.00 0.00 67 1004.5
20260504025225 56 199 3.0 10.0 0.00 0.00 0.00 67 1004.6
20260504025105 56 199 3.0 10.0 0.00 0.00 0.00 67 1004.6
20260504025005 56 201 3.0 10.0 0.00 0.00 0.00 67 1004.6
20260504024905 56 199 3.0 13.0 0.00 0.00 0.00 67 1004.5
20260504024825 56 202 3.0 13.0 0.00 0.00 0.00 67 1004.5
20260504024704 56 204 3.0 13.0 0.00 0.00 0.00 67 1004.6
20260504024604 56 204 4.0 13.0 0.00 0.00 0.00 67 1004.6
20260504024504 56 202 4.0 13.0 0.00 0.00 0.00 67 1004.6
20260504024404 56 195 4.0 13.0 0.00 0.00 0.00 67 1004.7
20260504024304 56 197 4.0 13.0 0.00 0.00 0.00 67 1004.7
20260504024204 56 197 4.0 13.0 0.00 0.00 0.00 67 1004.7
20260504024104 56 194 4.0 13.0 0.00 0.00 0.00 67 1004.7
20260504024004 56 195 4.0 13.0 0.00 0.00 0.00 67 1004.7
20260504023904 56 192 4.0 12.0 0.00 0.00 0.00 67 1004.7
20260504023804 56 189 4.0 12.0 0.00 0.00 0.00 67 1004.7
20260504023704 56 192 4.0 12.0 0.00 0.00 0.00 67 1004.7
20260504023604 56 193 4.0 12.0 0.00 0.00 0.00 67 1004.7
20260504023504 56 195 4.0 12.0 0.00 0.00 0.00 67 1004.7
20260504023404 56 198 4.0 12.0 0.00 0.00 0.00 67 1004.7
20260504023304 56 195 4.0 12.0 0.00 0.00 0.00 67 1004.7
20260504023225 56 196 4.0 11.0 0.00 0.00 0.00 67 1004.7
20260504023125 56 201 4.0 10.0 0.00 0.00 0.00 67 1004.7
20260504023004 56 200 4.0 12.0 0.00 0.00 0.00 67 1004.7
20260504022904 56 197 4.0 12.0 0.00 0.00 0.00 67 1004.7
20260504022804 57 203 4.0 12.0 0.00 0.00 0.00 66 1004.7
20260504022704 57 201 4.0 18.0 0.00 0.00 0.00 66 1004.7
20260504022604 57 199 5.0 18.0 0.00 0.00 0.00 66 1004.7
20260504022504 57 200 4.0 18.0 0.00 0.00 0.00 66 1004.7
20260504022404 57 201 4.0 18.0 0.00 0.00 0.00 66 1004.7
20260504022305 57 203 5.0 18.0 0.00 0.00 0.00 66 1004.7
20260504022225 57 202 5.0 18.0 0.00 0.00 0.00 66 1004.7
20260504022104 57 198 4.0 18.0 0.00 0.00 0.00 66 1004.7
20260504022025 57 199 4.0 18.0 0.00 0.00 0.00 66 1004.7
20260504021904 57 204 4.0 18.0 0.00 0.00 0.00 66 1004.7
20260504021804 57 196 4.0 18.0 0.00 0.00 0.00 66 1004.7
20260504021704 57 193 4.0 12.0 0.00 0.00 0.00 66 1004.7
20260504021604 57 197 4.0 12.0 0.00 0.00 0.00 66 1004.7
20260504021504 57 193 4.0 12.0 0.00 0.00 0.00 66 1004.7
20260504021404 57 191 4.0 13.0 0.00 0.00 0.00 66 1004.8
20260504021304 57 192 4.0 13.0 0.00 0.00 0.00 65 1004.8
20260504021204 57 194 4.0 13.0 0.00 0.00 0.00 65 1004.8
20260504021104 57 193 5.0 13.0 0.00 0.00 0.00 65 1004.8
20260504021025 57 191 5.0 13.0 0.00 0.00 0.00 65 1004.8
20260504020925 57 191 5.0 13.0 0.00 0.00 0.00 65 1004.9
20260504020804 57 197 5.0 13.0 0.00 0.00 0.00 65 1004.9
20260504020704 57 199 5.0 13.0 0.00 0.00 0.00 65 1004.8
20260504020604 57 199 5.0 13.0 0.00 0.00 0.00 65 1004.9
20260504020504 57 201 4.0 13.0 0.00 0.00 0.00 65 1004.9
20260504020404 57 203 5.0 13.0 0.00 0.00 0.00 65 1004.8
20260504020305 57 204 5.0 13.0 0.00 0.00 0.00 65 1004.8
20260504020204 57 204 5.0 13.0 0.00 0.00 0.00 65 1004.8
20260504020104 57 204 4.0 11.0 0.00 0.00 0.00 65 1004.8
20260504020004 57 206 5.0 12.0 0.00 0.00 0.00 65 1004.8
20260504015925 57 205 5.0 13.0 0.00 0.00 0.00 65 1004.8
20260504015804 57 201 5.0 13.0 0.00 0.00 0.00 65 1004.8
20260504015704 57 200 5.0 13.0 0.00 0.00 0.00 65 1004.8
20260504015625 57 201 5.0 13.0 0.00 0.00 0.00 65 1004.9
20260504015505 57 201 5.0 13.0 0.00 0.00 0.00 65 1004.9
20260504015404 57 205 6.0 15.0 0.00 0.00 0.00 65 1004.8
20260504015305 57 203 5.0 15.0 0.00 0.00 0.00 65 1004.8
20260504015204 57 200 6.0 15.0 0.00 0.00 0.00 65 1004.8
20260504015104 57 198 6.0 16.0 0.00 0.00 0.00 65 1004.9
20260504015004 57 199 5.0 16.0 0.00 0.00 0.00 65 1004.9
20260504014904 57 199 5.0 16.0 0.00 0.00 0.00 65 1004.9
20260504014825 57 200 5.0 16.0 0.00 0.00 0.00 66 1004.9
20260504014725 57 201 5.0 16.0 0.00 0.00 0.00 66 1004.9
20260504014604 57 199 6.0 16.0 0.00 0.00 0.00 66 1004.9
20260504014504 57 198 6.0 16.0 0.00 0.00 0.00 65 1004.9
20260504014404 57 194 5.0 16.0 0.00 0.00 0.00 65 1004.9
20260504014304 57 193 6.0 16.0 0.00 0.00 0.00 65 1004.9
20260504014204 57 196 5.0 16.0 0.00 0.00 0.00 65 1004.9
20260504014104 57 195 5.0 14.0 0.00 0.00 0.00 65 1004.8
20260504014004 57 197 5.0 14.0 0.00 0.00 0.00 65 1004.8
20260504013925 57 198 5.0 14.0 0.00 0.00 0.00 65 1004.8
20260504013825 57 201 5.0 14.0 0.00 0.00 0.00 65 1004.9
20260504013704 57 199 5.0 14.0 0.00 0.00 0.00 65 1004.9
20260504013604 57 199 5.0 14.0 0.00 0.00 0.00 65 1004.9
20260504013525 57 198 5.0 14.0 0.00 0.00 0.00 65 1004.9
20260504013404 57 198 5.0 13.0 0.00 0.00 0.00 65 1004.9
20260504013304 57 202 5.0 13.0 0.00 0.00 0.00 65 1004.9
20260504013204 57 198 5.0 13.0 0.00 0.00 0.00 65 1004.9
20260504013104 57 200 5.0 13.0 0.00 0.00 0.00 65 1004.9
20260504013004 57 196 5.0 15.0 0.00 0.00 0.00 65 1005.0
20260504012904 57 194 5.0 15.0 0.00 0.00 0.00 65 1005.0
20260504012825 57 191 5.0 15.0 0.00 0.00 0.00 65 1004.8
20260504012704 57 188 5.0 15.0 0.00 0.00 0.00 65 1004.8
20260504012604 57 187 5.0 15.0 0.00 0.00 0.00 64 1004.8
20260504012504 57 188 5.0 15.0 0.00 0.00 0.00 64 1004.8
20260504012404 57 187 5.0 15.0 0.00 0.00 0.00 65 1004.8
20260504012304 57 185 5.0 15.0 0.00 0.00 0.00 64 1004.8
20260504012225 57 186 5.0 15.0 0.00 0.00 0.00 64 1004.8
20260504012104 57 190 5.0 15.0 0.00 0.00 0.00 64 1004.9
20260504012004 57 190 5.0 14.0 0.00 0.00 0.00 64 1004.8
20260504011904 57 191 4.0 14.0 0.00 0.00 0.00 65 1004.8
20260504011804 56 192 4.0 13.0 0.00 0.00 0.00 65 1004.8
20260504011704 56 204 4.0 16.0 0.00 0.00 0.00 65 1004.9
20260504011604 56 207 5.0 16.0 0.00 0.00 0.00 65 1004.9
20260504011504 56 207 5.0 16.0 0.00 0.00 0.00 65 1004.8
20260504011404 56 208 5.0 16.0 0.00 0.00 0.00 65 1004.8
20260504011304 57 209 5.0 16.0 0.00 0.00 0.00 64 1004.9
20260504011204 57 210 5.0 16.0 0.00 0.00 0.00 64 1004.9
20260504011125 56 208 5.0 16.0 0.00 0.00 0.00 64 1004.9
20260504011004 56 211 5.0 16.0 0.00 0.00 0.00 65 1004.9
20260504010904 57 211 6.0 16.0 0.00 0.00 0.00 64 1004.9
20260504010804 56 210 5.0 16.0 0.00 0.00 0.00 64 1004.9
20260504010704 56 205 5.0 13.0 0.00 0.00 0.00 64 1005.0
20260504010604 56 205 5.0 12.0 0.00 0.00 0.00 65 1005.0
20260504010525 56 207 5.0 15.0 0.00 0.00 0.00 65 1004.9
20260504010404 56 209 5.0 15.0 0.00 0.00 0.00 65 1004.8
20260504010304 56 206 5.0 15.0 0.00 0.00 0.00 64 1004.8
20260504010204 56 204 5.0 15.0 0.00 0.00 0.00 64 1004.8
20260504010104 56 204 5.0 15.0 0.00 0.00 0.00 64 1004.8
20260504010025 56 203 5.0 15.0 0.00 0.00 0.00 64 1004.7
20260504005904 56 199 5.0 15.0 0.00 0.00 0.00 64 1004.7
20260504005825 56 197 5.0 15.0 0.00 0.00 0.00 64 1004.7
20260504005704 56 196 5.0 15.0 0.00 0.00 0.00 64 1004.8
20260504005604 56 196 5.0 15.0 0.00 0.00 0.00 64 1004.8
20260504005504 56 193 5.0 14.0 0.00 0.00 0.00 65 1004.7
20260504005404 56 195 5.0 17.0 0.00 0.00 0.00 64 1004.7
20260504005325 56 195 5.0 17.0 0.00 0.00 0.00 64 1004.7
20260504005204 56 198 5.0 17.0 0.00 0.00 0.00 64 1004.7
20260504005104 56 196 5.0 17.0 0.00 0.00 0.00 65 1004.6
20260504005004 56 197 6.0 17.0 0.00 0.00 0.00 64 1004.6
20260504004904 56 203 6.0 17.0 0.00 0.00 0.00 64 1004.6
20260504004804 56 201 6.0 17.0 0.00 0.00 0.00 64 1004.6
20260504004704 56 204 6.0 17.0 0.00 0.00 0.00 64 1004.7
20260504004604 56 204 5.0 17.0 0.00 0.00 0.00 65 1004.8
20260504004504 56 207 5.0 17.0 0.00 0.00 0.00 65 1004.8
20260504004404 56 206 5.0 14.0 0.00 0.00 0.00 65 1004.7
20260504004304 56 208 6.0 14.0 0.00 0.00 0.00 65 1004.7
20260504004225 56 209 6.0 14.0 0.00 0.00 0.00 65 1004.7
20260504004104 56 205 6.0 19.0 0.00 0.00 0.00 65 1004.7
20260504004004 56 205 6.0 19.0 0.00 0.00 0.00 65 1004.8
20260504003904 56 202 6.0 19.0 0.00 0.00 0.00 65 1004.8
20260504003825 56 201 6.0 19.0 0.00 0.00 0.00 65 1004.7
20260504003704 56 204 6.0 19.0 0.00 0.00 0.00 65 1004.7
20260504003604 56 203 6.0 19.0 0.00 0.00 0.00 65 1004.7
20260504003504 56 202 7.0 19.0 0.00 0.00 0.00 65 1004.7
20260504003425 56 202 7.0 19.0 0.00 0.00 0.00 65 1004.7
20260504003304 56 198 7.0 19.0 0.00 0.00 0.00 65 1004.8
20260504003203 56 194 6.0 19.0 0.00 0.00 0.00 65 1004.8
20260504003104 56 196 6.0 16.0 0.00 0.00 0.00 65 1004.7
20260504003004 56 196 6.0 16.0 0.00 0.00 0.00 65 1004.9
20260504002904 56 194 5.0 16.0 0.00 0.00 0.00 64 1004.9
20260504002804 56 195 5.0 16.0 0.00 0.00 0.00 64 1004.9
20260504002725 56 192 5.0 16.0 0.00 0.00 0.00 64 1004.9
20260504002603 56 190 5.0 16.0 0.00 0.00 0.00 64 1004.7
20260504002504 56 192 5.0 16.0 0.00 0.00 0.00 64 1004.8
20260504002404 56 191 5.0 16.0 0.00 0.00 0.00 64 1004.8
20260504002305 56 192 5.0 16.0 0.00 0.00 0.00 64 1004.9
20260504002204 56 193 5.0 15.0 0.00 0.00 0.00 64 1004.9
20260504002104 56 192 5.0 15.0 0.00 0.00 0.00 64 1004.9
20260504002004 56 192 6.0 16.0 0.00 0.00 0.00 64 1004.8
20260504001904 56 193 6.0 23.0 0.00 0.00 0.00 64 1004.8
20260504001804 56 193 6.0 23.0 0.00 0.00 0.00 64 1004.8
20260504001704 56 189 7.0 23.0 0.00 0.00 0.00 64 1004.9
20260504001604 56 190 7.0 23.0 0.00 0.00 0.00 64 1004.9
20260504001504 57 188 7.0 23.0 0.00 0.00 0.00 64 1005.0
20260504001424 57 187 7.0 23.0 0.00 0.00 0.00 64 1005.0
20260504001304 56 191 7.0 23.0 0.00 0.00 0.00 64 1004.9
20260504001204 57 194 7.0 23.0 0.00 0.00 0.00 64 1004.9
20260504001104 56 198 7.0 23.0 0.00 0.00 0.00 64 1004.9
20260504001003 56 199 7.0 23.0 0.00 0.00 0.00 64 1004.9
20260504000904 57 202 7.0 22.0 0.00 0.00 0.00 64 1005.0
20260504000804 57 204 7.0 22.0 0.00 0.00 0.00 64 1005.0
20260504000725 57 207 7.0 17.0 0.00 0.00 0.00 64 1004.9
20260504000604 57 210 6.0 17.0 0.00 0.00 0.00 64 1004.9
20260504000504 57 212 6.0 17.0 0.00 0.00 0.00 64 1004.9
20260504000404 57 210 6.0 21.0 0.00 0.00 0.00 63 1004.9
20260504000304 57 207 7.0 21.0 0.00 0.00 0.00 63 1004.9
20260504000205 57 204 6.0 21.0 0.00 0.00 0.00 63 1004.8
20260504000104 57 202 7.0 21.0 0.00 0.00 0.00 63 1004.8
20260504000004 57 202 7.0 21.0 0.00 0.00 0.00 63 1005.0
20260503235904 57 199 6.0 21.0 0.00 0.00 0.00 63 1004.8
20260503235804 57 197 6.0 21.0 0.00 0.00 0.00 63 1004.8
20260503235704 57 196 7.0 21.0 0.00 0.00 0.00 63 1004.8
20260503235604 57 197 7.0 21.0 0.00 0.00 0.00 63 1004.8
20260503235504 57 197 7.0 21.0 0.00 0.00 0.00 63 1004.9
20260503235404 57 199 7.0 20.0 0.00 0.00 0.00 63 1004.8
20260503235304 57 198 7.0 20.0 0.00 0.00 0.00 62 1004.8
20260503235204 57 197 7.0 18.0 0.00 0.00 0.00 62 1004.8
20260503235104 57 196 7.0 18.0 0.00 0.00 0.00 62 1005.0
20260503235025 57 195 7.0 18.0 0.00 0.00 0.00 62 1005.0
20260503234925 57 194 7.0 18.0 0.00 0.00 0.00 62 1005.0
20260503234804 57 199 7.0 18.0 0.00 0.00 0.00 62 1005.0
20260503234704 57 200 6.0 18.0 0.00 0.00 0.00 62 1005.0
20260503234625 57 199 6.0 18.0 0.00 0.00 0.00 61 1005.0
20260503234504 57 201 7.0 19.0 0.00 0.00 0.00 61 1005.2
20260503234403 57 199 7.0 19.0 0.00 0.00 0.00 61 1005.0
20260503234304 57 198 7.0 19.0 0.00 0.00 0.00 61 1005.0
20260503234205 57 201 6.0 19.0 0.00 0.00 0.00 61 1005.2
20260503234125 57 203 6.0 19.0 0.00 0.00 0.00 61 1005.2
20260503234004 57 205 6.0 19.0 0.00 0.00 0.00 61 1005.2
20260503233904 57 205 6.0 19.0 0.00 0.00 0.00 61 1005.2
20260503233804 57 202 6.0 19.0 0.00 0.00 0.00 61 1005.2
20260503233704 57 200 6.0 19.0 0.00 0.00 0.00 61 1005.3
20260503233625 57 199 6.0 19.0 0.00 0.00 0.00 61 1005.3
20260503233504 57 198 5.0 18.0 0.00 0.00 0.00 61 1005.4
20260503233403 57 198 5.0 17.0 0.00 0.00 0.00 61 1005.3
20260503233303 57 202 5.0 17.0 0.00 0.00 0.00 61 1005.3
20260503233204 57 202 5.0 17.0 0.00 0.00 0.00 61 1005.3
20260503233104 57 203 6.0 17.0 0.00 0.00 0.00 61 1005.3
20260503233004 57 202 6.0 17.0 0.00 0.00 0.00 60 1005.3
20260503232904 57 196 6.0 16.0 0.00 0.00 0.00 60 1005.4
20260503232803 57 194 6.0 15.0 0.00 0.00 0.00 60 1005.6
20260503232704 57 195 6.0 15.0 0.00 0.00 0.00 60 1005.6
20260503232604 58 195 6.0 15.0 0.00 0.00 0.00 60 1005.4
20260503232503 57 195 7.0 15.0 0.00 0.00 0.00 60 1005.4
20260503232404 57 193 7.0 15.0 0.00 0.00 0.00 60 1005.5
20260503232324 57 195 7.0 15.0 0.00 0.00 0.00 60 1005.5
20260503232204 57 194 6.0 15.0 0.00 0.00 0.00 60 1005.5
20260503232104 57 193 7.0 15.0 0.00 0.00 0.00 59 1005.6
20260503232004 57 192 6.0 15.0 0.00 0.00 0.00 59 1005.6
20260503231904 57 195 6.0 17.0 0.00 0.00 0.00 59 1005.5
20260503231804 57 198 6.0 17.0 0.00 0.00 0.00 60 1005.6
20260503231703 57 199 6.0 17.0 0.00 0.00 0.00 59 1005.6
20260503231603 57 201 6.0 17.0 0.00 0.00 0.00 59 1005.7
20260503231504 57 201 6.0 17.0 0.00 0.00 0.00 59 1005.7
20260503231426 57 204 6.0 17.0 0.00 0.00 0.00 59 1005.7
20260503231303 57 200 6.0 17.0 0.00 0.00 0.00 60 1005.8
20260503231203 57 200 6.0 17.0 0.00 0.00 0.00 59 1005.8
20260503231103 57 198 6.0 17.0 0.00 0.00 0.00 59 1005.8
20260503231004 57 203 6.0 17.0 0.00 0.00 0.00 59 1005.8
20260503230904 57 202 6.0 15.0 0.00 0.00 0.00 60 1005.8
20260503230804 57 200 6.0 15.0 0.00 0.00 0.00 59 1005.9
20260503230703 57 195 6.0 15.0 0.00 0.00 0.00 60 1005.9
20260503230604 57 195 7.0 21.0 0.00 0.00 0.00 59 1005.8
20260503230504 57 192 6.0 21.0 0.00 0.00 0.00 59 1005.9
20260503230425 57 190 6.0 21.0 0.00 0.00 0.00 59 1005.9
20260503230304 57 192 6.0 21.0 0.00 0.00 0.00 59 1005.8
20260503230204 57 191 7.0 21.0 0.00 0.00 0.00 59 1005.9
20260503230104 57 191 7.0 21.0 0.00 0.00 0.00 59 1005.9
20260503230004 57 191 7.0 21.0 0.00 0.00 0.00 59 1005.9
20260503225904 57 196 7.0 21.0 0.00 0.00 0.00 59 1005.9
20260503225804 57 196 7.0 21.0 0.00 0.00 0.00 59 1005.9
20260503225724 57 198 7.0 21.0 0.00 0.00 0.00 59 1005.9
20260503225603 57 199 6.0 21.0 0.00 0.00 0.00 59 1005.9
20260503225505 57 203 6.0 18.0 0.00 0.00 0.00 59 1005.8
20260503225404 57 207 6.0 16.0 0.00 0.00 0.00 59 1005.9
20260503225305 57 208 6.0 16.0 0.00 0.00 0.00 59 1005.9
20260503225204 57 208 6.0 16.0 0.00 0.00 0.00 59 1005.9
20260503225104 57 209 6.0 16.0 0.00 0.00 0.00 59 1006.0
20260503225004 57 205 6.0 16.0 0.00 0.00 0.00 59 1006.0
20260503224904 57 202 6.0 16.0 0.00 0.00 0.00 59 1006.0
20260503224825 57 202 6.0 16.0 0.00 0.00 0.00 59 1006.0
20260503224704 57 201 6.0 16.0 0.00 0.00 0.00 59 1006.1
20260503224603 57 203 7.0 21.0 0.00 0.00 0.00 58 1006.1
20260503224503 57 201 7.0 21.0 0.00 0.00 0.00 59 1006.1
20260503224404 57 200 7.0 21.0 0.00 0.00 0.00 59 1006.1
20260503224304 57 198 6.0 21.0 0.00 0.00 0.00 60 1006.1
20260503224204 57 196 7.0 21.0 0.00 0.00 0.00 60 1006.2
20260503224103 57 196 6.0 21.0 0.00 0.00 0.00 60 1006.1
20260503224003 57 198 6.0 21.0 0.00 0.00 0.00 59 1006.1
20260503223904 57 200 6.0 21.0 0.00 0.00 0.00 60 1006.1
20260503223804 57 202 6.0 21.0 0.00 0.00 0.00 60 1006.1
20260503223704 57 202 6.0 21.0 0.00 0.00 0.00 60 1006.1
20260503223603 57 198 6.0 18.0 0.00 0.00 0.00 60 1006.0
20260503223504 57 196 6.0 16.0 0.00 0.00 0.00 60 1006.0
20260503223404 57 197 6.0 16.0 0.00 0.00 0.00 61 1006.2
20260503223325 57 201 6.0 16.0 0.00 0.00 0.00 61 1006.2
20260503223203 57 203 6.0 16.0 0.00 0.00 0.00 61 1006.1
20260503223103 57 206 6.0 16.0 0.00 0.00 0.00 61 1006.2
20260503223004 57 207 6.0 16.0 0.00 0.00 0.00 61 1006.2
20260503222925 57 206 6.0 16.0 0.00 0.00 0.00 61 1006.3
20260503222803 57 207 6.0 16.0 0.00 0.00 0.00 61 1006.3
20260503222724 57 210 6.0 16.0 0.00 0.00 0.00 61 1006.3
20260503222603 56 209 6.0 16.0 0.00 0.00 0.00 61 1006.3
20260503222504 56 214 6.0 16.0 0.00 0.00 0.00 62 1006.3
20260503222404 56 212 6.0 16.0 0.00 0.00 0.00 62 1006.3
20260503222304 56 213 6.0 16.0 0.00 0.00 0.00 61 1006.3
20260503222203 56 211 6.0 15.0 0.00 0.00 0.00 62 1006.3
20260503222103 56 211 5.0 20.0 0.00 0.00 0.00 62 1006.4
20260503222003 56 206 6.0 20.0 0.00 0.00 0.00 62 1006.4
20260503221904 56 204 6.0 20.0 0.00 0.00 0.00 63 1006.4
20260503221825 56 204 6.0 20.0 0.00 0.00 0.00 63 1006.4
20260503221703 56 203 6.0 20.0 0.00 0.00 0.00 63 1006.4
20260503221603 56 201 6.0 20.0 0.00 0.00 0.00 62 1006.5
20260503221504 56 197 6.0 20.0 0.00 0.00 0.00 63 1006.4
20260503221404 56 196 6.0 20.0 0.00 0.00 0.00 63 1006.4
20260503221325 56 196 6.0 20.0 0.00 0.00 0.00 63 1006.5
20260503221203 56 199 7.0 20.0 0.00 0.00 0.00 64 1006.5
20260503221124 56 201 7.0 19.0 0.00 0.00 0.00 63 1006.6
20260503221004 56 206 7.0 17.0 0.00 0.00 0.00 63 1006.6
20260503220904 56 206 7.0 17.0 0.00 0.00 0.00 64 1006.6
20260503220803 56 201 7.0 18.0 0.00 0.00 0.00 64 1006.6
20260503220704 56 202 7.0 18.0 0.00 0.00 0.00 64 1006.6
20260503220603 55 202 8.0 18.0 0.00 0.00 0.00 64 1006.7
20260503220504 55 202 8.0 18.0 0.00 0.00 0.00 64 1006.7
20260503220404 55 204 8.0 18.0 0.00 0.00 0.00 64 1006.7
20260503220303 55 204 7.0 18.0 0.00 0.00 0.00 64 1006.6
20260503220203 55 199 7.0 18.0 0.00 0.00 0.00 65 1006.6
20260503220124 55 197 7.0 18.0 0.00 0.00 0.00 64 1006.6
20260503220004 55 194 7.0 18.0 0.00 0.00 0.00 65 1006.8
20260503215925 55 194 7.0 18.0 0.00 0.00 0.00 64 1006.8
20260503215803 55 201 7.0 18.0 0.00 0.00 0.00 65 1006.7
20260503215703 55 199 7.0 18.0 0.00 0.00 0.00 65 1006.7
20260503215603 55 199 7.0 15.0 0.00 0.00 0.00 66 1006.8
20260503215504 55 199 7.0 16.0 0.00 0.00 0.00 66 1006.8
20260503215404 55 196 7.0 20.0 0.00 0.00 0.00 66 1006.8
20260503215304 54 192 7.0 20.0 0.00 0.00 0.00 67 1006.8
20260503215204 54 193 7.0 20.0 0.00 0.00 0.00 67 1006.8
20260503215103 54 194 6.0 20.0 0.00 0.00 0.00 68 1006.9
20260503215003 54 194 6.0 20.0 0.00 0.00 0.00 67 1006.9
20260503214903 54 194 6.0 20.0 0.00 0.00 0.00 68 1006.9
20260503214825 54 193 6.0 20.0 0.00 0.00 0.00 68 1006.9
20260503214704 54 191 6.0 20.0 0.00 0.00 0.00 67 1007.0
20260503214603 54 196 5.0 20.0 0.00 0.00 0.00 67 1007.0
20260503214503 54 199 5.0 20.0 0.00 0.00 0.00 68 1007.1
20260503214403 54 204 5.0 15.0 0.00 0.00 0.00 68 1007.1
20260503214304 53 208 5.0 15.0 0.00 0.00 0.00 68 1007.1
20260503214204 53 212 5.0 15.0 0.00 0.00 0.00 68 1007.2
20260503214104 53 209 5.0 15.0 0.00 0.00 0.00 68 1007.2
20260503214024 53 212 5.0 13.0 0.00 0.00 0.00 69 1007.3
20260503213903 53 213 5.0 13.0 0.00 0.00 0.00 68 1007.3
20260503213803 53 213 5.0 13.0 0.00 0.00 0.00 69 1007.4
20260503213704 53 215 5.0 14.0 0.00 0.00 0.00 69 1007.3
20260503213604 53 215 5.0 14.0 0.00 0.00 0.00 69 1007.3
20260503213504 53 216 5.0 14.0 0.00 0.00 0.00 69 1007.5
20260503213424 53 212 5.0 14.0 0.00 0.00 0.00 69 1007.5
20260503213304 53 210 5.0 14.0 0.00 0.00 0.00 70 1007.4
20260503213204 53 205 5.0 14.0 0.00 0.00 0.00 70 1007.4
20260503213104 53 207 5.0 14.0 0.00 0.00 0.00 70 1007.4
20260503213004 53 202 5.0 14.0 0.00 0.00 0.00 70 1007.5
20260503212903 53 198 4.0 14.0 0.00 0.00 0.00 70 1007.5
20260503212825 53 199 4.0 14.0 0.00 0.00 0.00 70 1007.5
20260503212703 52 201 5.0 14.0 0.00 0.00 0.00 70 1007.5
20260503212625 52 203 5.0 14.0 0.00 0.00 0.00 70 1007.5
20260503212504 52 199 5.0 14.0 0.00 0.00 0.00 71 1007.6
20260503212403 52 199 5.0 13.0 0.00 0.00 0.00 71 1007.6
20260503212305 52 204 5.0 13.0 0.00 0.00 0.00 71 1007.6
20260503212203 52 207 5.0 17.0 0.00 0.00 0.00 72 1007.7
20260503212104 52 207 5.0 17.0 0.00 0.00 0.00 72 1007.7
20260503212024 52 207 5.0 17.0 0.00 0.00 0.00 72 1007.8
20260503211924 52 203 5.0 17.0 0.00 0.00 0.00 73 1007.8
20260503211803 52 205 5.0 17.0 0.00 0.00 0.00 73 1007.7
20260503211704 52 208 5.0 17.0 0.00 0.00 0.00 73 1007.7
20260503211604 52 200 6.0 17.0 0.00 0.00 0.00 73 1007.7
20260503211524 52 201 6.0 17.0 0.00 0.00 0.00 73 1007.7
20260503211425 52 203 6.0 17.0 0.00 0.00 0.00 74 1007.7
20260503211303 51 200 6.0 17.0 0.00 0.00 0.00 74 1007.7
20260503211224 51 203 6.0 16.0 0.00 0.00 0.00 74 1007.8
20260503211104 51 203 7.0 16.0 0.00 0.00 0.00 73 1007.8
20260503211004 51 203 7.0 16.0 0.00 0.00 0.00 74 1007.8
20260503210924 51 204 7.0 16.0 0.00 0.00 0.00 74 1007.8
20260503210803 51 202 7.0 16.0 0.00 0.00 0.00 74 1007.8
20260503210703 51 199 7.0 15.0 0.00 0.00 0.00 74 1007.8
20260503210625 51 202 7.0 15.0 0.00 0.00 0.00 74 1007.8
20260503210503 51 206 7.0 16.0 0.00 0.00 0.00 74 1007.9
20260503210404 51 207 8.0 16.0 0.00 0.00 0.00 74 1007.9
20260503210303 51 205 7.0 16.0 0.00 0.00 0.00 74 1007.9
20260503210224 51 203 7.0 16.0 0.00 0.00 0.00 75 1008.0
20260503210103 51 205 7.0 16.0 0.00 0.00 0.00 74 1007.9
20260503210025 51 207 7.0 16.0 0.00 0.00 0.00 75 1007.9
20260503205924 51 211 7.0 16.0 0.00 0.00 0.00 75 1007.9
20260503205803 51 210 7.0 26.0 0.00 0.00 0.00 75 1008.0
20260503205703 51 211 7.0 26.0 0.00 0.00 0.00 75 1008.0
20260503205604 51 204 7.0 26.0 0.00 0.00 0.00 75 1008.1
20260503205504 51 202 7.0 26.0 0.00 0.00 0.00 75 1008.1
20260503205424 51 202 7.0 26.0 0.00 0.00 0.00 75 1008.0
20260503205304 51 205 7.0 26.0 0.00 0.00 0.00 75 1008.1
20260503205203 51 205 7.0 26.0 0.00 0.00 0.00 75 1008.1
20260503205104 50 199 7.0 26.0 0.00 0.00 0.00 75 1008.0
20260503205003 50 203 7.0 26.0 0.00 0.00 0.00 76 1008.0
20260503204924 50 200 7.0 26.0 0.00 0.00 0.00 75 1008.1
20260503204803 50 204 7.0 25.0 0.00 0.00 0.00 75 1008.2
20260503204724 50 204 7.0 25.0 0.00 0.00 0.00 75 1008.2
20260503204604 50 210 7.0 19.0 0.00 0.00 0.00 76 1008.2
20260503204504 50 211 6.0 19.0 0.00 0.00 0.00 76 1008.2
20260503204403 50 210 7.0 19.0 0.00 0.00 0.00 76 1008.2
20260503204303 50 207 7.0 18.0 0.00 0.00 0.00 76 1008.3
20260503204203 50 205 7.0 18.0 0.00 0.00 0.00 76 1008.3
20260503204103 50 204 7.0 18.0 0.00 0.00 0.00 76 1008.3
20260503204024 50 202 7.0 18.0 0.00 0.00 0.00 76 1008.3
20260503203924 50 198 7.0 18.0 0.00 0.00 0.00 76 1008.2
20260503203804 50 195 7.0 18.0 0.00 0.00 0.00 75 1008.3
20260503203703 50 197 7.0 18.0 0.00 0.00 0.00 75 1008.3
20260503203604 50 194 6.0 18.0 0.00 0.00 0.00 76 1008.2
20260503203503 50 195 6.0 18.0 0.00 0.00 0.00 75 1008.3
20260503203404 50 194 6.0 18.0 0.00 0.00 0.00 76 1008.3
20260503203303 50 196 6.0 18.0 0.00 0.00 0.00 75 1008.2
20260503203203 50 197 6.0 18.0 0.00 0.00 0.00 75 1008.2
20260503203124 50 200 6.0 18.0 0.00 0.00 0.00 75 1008.3
20260503203003 50 200 6.0 18.0 0.00 0.00 0.00 75 1008.2
20260503202904 50 200 6.0 18.0 0.00 0.00 0.00 76 1008.2
20260503202803 50 203 6.0 18.0 0.00 0.00 0.00 75 1008.2
20260503202703 50 200 6.0 18.0 0.00 0.00 0.00 76 1008.2
20260503202603 50 200 6.0 18.0 0.00 0.00 0.00 76 1008.3
20260503202503 50 199 7.0 18.0 0.00 0.00 0.00 75 1008.3
20260503202403 50 200 6.0 18.0 0.00 0.00 0.00 75 1008.3
20260503202304 50 204 6.0 18.0 0.00 0.00 0.00 75 1008.2
20260503202224 50 206 6.0 18.0 0.00 0.00 0.00 75 1008.2
20260503202103 50 208 6.0 17.0 0.00 0.00 0.00 75 1008.3
20260503202003 50 211 6.0 20.0 0.00 0.00 0.00 75 1008.3
20260503201904 50 210 6.0 20.0 0.00 0.00 0.00 75 1008.3
20260503201803 50 208 7.0 20.0 0.00 0.00 0.00 75 1008.4
20260503201703 50 208 7.0 20.0 0.00 0.00 0.00 75 1008.3
20260503201603 50 211 7.0 20.0 0.00 0.00 0.00 75 1008.3
20260503201503 50 212 7.0 20.0 0.00 0.00 0.00 76 1008.3
20260503201424 50 211 7.0 20.0 0.00 0.00 0.00 76 1008.3
20260503201324 50 210 7.0 20.0 0.00 0.00 0.00 76 1008.3
20260503201203 50 207 7.0 20.0 0.00 0.00 0.00 76 1008.4
20260503201103 50 205 8.0 20.0 0.00 0.00 0.00 76 1008.4
20260503201003 50 205 8.0 19.0 0.00 0.00 0.00 75 1008.4
20260503200924 50 210 8.0 18.0 0.00 0.00 0.00 76 1008.4
20260503200803 50 211 7.0 15.0 0.00 0.00 0.00 76 1008.3
20260503200724 50 213 7.0 15.0 0.00 0.00 0.00 76 1008.3
20260503200624 50 216 7.0 15.0 0.00 0.00 0.00 76 1008.5
20260503200503 50 217 7.0 15.0 0.00 0.00 0.00 76 1008.5
20260503200403 50 218 7.0 14.0 0.00 0.00 0.00 76 1008.5
20260503200303 50 221 7.0 20.0 0.00 0.00 0.00 76 1008.5
20260503200224 50 219 7.0 20.0 0.00 0.00 0.00 76 1008.5
20260503200124 50 221 7.0 20.0 0.00 0.00 0.00 76 1008.5
20260503200003 50 219 7.0 20.0 0.00 0.00 0.00 76 1008.6
20260503195903 50 216 7.0 20.0 0.00 0.00 0.00 76 1008.5
20260503195803 50 217 6.0 20.0 0.00 0.00 0.00 76 1008.5
20260503195703 50 215 6.0 20.0 0.00 0.00 0.00 76 1008.6
20260503195604 50 213 6.0 20.0 0.00 0.00 0.00 76 1008.6
20260503195504 50 209 7.0 20.0 0.00 0.00 0.00 76 1008.5
20260503195403 50 207 6.0 20.0 0.00 0.00 0.00 77 1008.5
20260503195304 50 205 6.0 18.0 0.00 0.00 0.00 77 1008.5
20260503195203 50 209 7.0 18.0 0.00 0.00 0.00 77 1008.6
20260503195103 50 214 6.0 18.0 0.00 0.00 0.00 77 1008.6
20260503195006 50 218 6.0 18.0 0.00 0.00 0.00 77 1008.5
20260503194903 50 221 6.0 18.0 0.00 0.00 0.00 77 1008.5
20260503194803 50 223 6.0 18.0 0.00 0.00 0.00 78 1008.5
20260503194707 49 222 6.0 17.0 0.00 0.00 0.00 77 1008.5
20260503194631 49 223 6.0 17.0 0.00 0.00 0.00 77 1008.5
20260503194524 49 226 6.0 17.0 0.00 0.00 0.00 78 1008.6
20260503194428 49 231 6.0 16.0 0.00 0.00 0.00 78 1008.5
20260503194307 49 233 7.0 16.0 0.00 0.00 0.00 78 1008.5
20260503194207 49 232 7.0 16.0 0.00 0.00 0.00 79 1008.5
20260503194106 49 227 7.0 15.0 0.00 0.00 0.00 79 1008.7
20260503194006 49 227 7.0 15.0 0.00 0.00 0.00 79 1008.7
20260503193907 49 226 7.0 16.0 0.00 0.00 0.00 79 1008.7
20260503193807 49 223 7.0 16.0 0.00 0.00 0.00 79 1008.7
20260503193707 49 223 7.0 16.0 0.00 0.00 0.00 79 1008.7
20260503193628 49 222 7.0 17.0 0.00 0.00 0.00 79 1008.7
20260503193507 49 221 8.0 17.0 0.00 0.00 0.00 79 1008.7
20260503193428 49 218 8.0 19.0 0.00 0.00 0.00 79 1008.8
20260503193306 49 215 8.0 21.0 0.00 0.00 0.00 79 1008.8
20260503193206 49 213 8.0 21.0 0.00 0.00 0.00 79 1008.8
20260503193106 48 214 8.0 21.0 0.00 0.00 0.00 79 1008.8
20260503193007 48 216 8.0 21.0 0.00 0.00 0.00 79 1008.8
20260503192906 48 214 8.0 21.0 0.00 0.00 0.00 79 1008.7
20260503192807 48 216 8.0 21.0 0.00 0.00 0.00 79 1008.8
20260503192707 48 214 8.0 21.0 0.00 0.00 0.00 79 1008.8
20260503192606 48 216 8.0 21.0 0.00 0.00 0.00 79 1008.7
20260503192506 48 216 7.0 21.0 0.00 0.00 0.00 79 1008.7
20260503192428 48 217 7.0 21.0 0.00 0.00 0.00 79 1008.8
20260503192306 48 220 7.0 17.0 0.00 0.00 0.00 79 1008.7
20260503192206 49 220 7.0 17.0 0.00 0.00 0.00 79 1008.7
20260503192107 49 215 7.0 17.0 0.00 0.00 0.00 79 1008.8
20260503192006 49 215 7.0 17.0 0.00 0.00 0.00 79 1008.8
20260503191907 49 215 7.0 17.0 0.00 0.00 0.00 78 1008.8
20260503191807 49 213 7.0 17.0 0.00 0.00 0.00 78 1008.9
20260503191707 49 213 7.0 17.0 0.00 0.00 0.00 78 1008.9
20260503191628 49 211 7.0 17.0 0.00 0.00 0.00 78 1008.9
20260503191528 49 212 7.0 17.0 0.00 0.00 0.00 77 1008.9
20260503191406 49 210 8.0 17.0 0.00 0.00 0.00 77 1008.8
20260503191306 49 210 8.0 17.0 0.00 0.00 0.00 77 1008.8
20260503191207 49 219 8.0 22.0 0.00 0.00 0.00 77 1008.8
20260503191106 49 223 8.0 22.0 0.00 0.00 0.00 77 1008.9
20260503191006 49 220 8.0 22.0 0.00 0.00 0.00 76 1009.0
20260503190906 49 221 8.0 22.0 0.00 0.00 0.00 76 1009.0
20260503190806 50 224 7.0 22.0 0.00 0.00 0.00 76 1009.1
20260503190727 50 224 7.0 22.0 0.00 0.00 0.00 76 1009.1
20260503190627 50 231 7.0 22.0 0.00 0.00 0.00 76 1009.1
20260503190506 50 231 7.0 22.0 0.00 0.00 0.00 76 1009.1
20260503190406 50 236 8.0 22.0 0.00 0.00 0.00 76 1009.1
20260503190306 50 234 7.0 22.0 0.00 0.00 0.00 75 1009.2
20260503190207 50 230 7.0 20.0 0.00 0.00 0.00 75 1009.2
20260503190106 50 229 7.0 20.0 0.00 0.00 0.00 75 1009.1
20260503190007 50 229 7.0 20.0 0.00 0.00 0.00 75 1009.0
20260503185927 50 228 7.0 20.0 0.00 0.00 0.00 74 1009.0
20260503185828 50 230 7.0 20.0 0.00 0.00 0.00 74 1009.1
20260503185727 51 230 7.0 20.0 0.00 0.00 0.00 73 1009.1
20260503185628 51 229 7.0 20.0 0.00 0.00 0.00 72 1009.1
20260503185506 51 227 8.0 16.0 0.00 0.00 0.00 71 1009.1
20260503185406 51 225 7.0 16.0 0.00 0.00 0.00 71 1009.1
20260503185307 52 224 7.0 16.0 0.00 0.00 0.00 70 1009.1
20260503185207 52 227 8.0 16.0 0.00 0.00 0.00 70 1009.2
20260503185107 52 227 8.0 17.0 0.00 0.00 0.00 70 1009.2
20260503185006 52 232 8.0 17.0 0.00 0.00 0.00 70 1009.1
20260503184906 52 232 8.0 17.0 0.00 0.00 0.00 69 1009.1
20260503184806 52 233 8.0 17.0 0.00 0.00 0.00 69 1009.1
20260503184706 52 231 8.0 18.0 0.00 0.00 0.00 68 1009.2
20260503184607 52 230 8.0 18.0 0.00 0.00 0.00 68 1009.2
20260503184506 53 230 8.0 18.0 0.00 0.00 0.00 68 1009.0
20260503184407 53 230 8.0 18.0 0.00 0.00 0.00 67 1009.0
20260503184328 53 230 8.0 18.0 0.00 0.00 0.00 67 1009.1
20260503184207 53 227 8.0 18.0 0.00 0.00 0.00 66 1009.2
20260503184106 53 225 8.0 18.0 0.00 0.00 0.00 66 1009.2
20260503184007 54 220 8.0 18.0 0.00 0.00 0.00 66 1009.2
20260503183927 54 219 8.0 19.0 0.00 0.00 0.00 66 1009.2
20260503183806 54 212 7.0 19.0 0.00 0.00 0.00 65 1009.3
20260503183706 54 210 7.0 19.0 0.00 0.00 0.00 65 1009.2
20260503183606 54 210 7.0 19.0 0.00 0.00 0.00 65 1009.2
20260503183507 54 213 7.0 19.0 0.00 0.00 0.00 65 1009.2
20260503183407 55 216 8.0 23.0 0.00 0.00 0.00 65 1009.2
20260503183306 55 215 8.0 23.0 0.00 0.00 0.00 65 1009.2
20260503183206 55 214 9.0 23.0 0.00 0.00 0.00 65 1009.2
20260503183106 54 218 9.0 23.0 0.00 0.00 0.00 65 1009.2
20260503183006 54 222 9.0 23.0 0.00 0.00 0.00 66 1009.4
20260503182906 54 223 9.0 23.0 0.00 0.00 0.00 65 1009.2
20260503182806 54 222 9.0 23.0 0.00 0.00 0.00 65 1009.2
20260503182706 54 224 9.0 23.0 0.00 0.00 0.00 65 1009.3
20260503182607 54 224 10.0 23.0 0.00 0.00 0.00 64 1009.3
20260503182527 54 227 10.0 23.0 0.00 0.00 0.00 64 1009.3
20260503182406 54 222 9.0 22.0 0.00 0.00 0.00 63 1009.4
20260503182307 55 224 9.0 22.0 0.00 0.00 0.00 63 1009.4
20260503182206 55 224 8.0 20.0 0.00 0.00 0.00 63 1009.4
20260503182106 55 222 8.0 20.0 0.00 0.00 0.00 64 1009.4
20260503182006 55 220 8.0 20.0 0.00 0.00 0.00 64 1009.4
20260503181906 55 225 9.0 20.0 0.00 0.00 0.00 63 1009.4
20260503181806 55 227 9.0 23.0 0.00 0.00 0.00 63 1009.4
20260503181706 55 227 9.0 23.0 0.00 0.00 0.00 63 1009.3
20260503181606 55 226 8.0 23.0 0.00 0.00 0.00 62 1009.4
20260503181527 55 223 8.0 23.0 0.00 0.00 0.00 63 1009.4
20260503181406 55 223 8.0 23.0 0.00 0.00 0.00 62 1009.7
20260503181327 55 221 8.0 23.0 0.00 0.00 0.00 62 1009.7
20260503181206 55 225 9.0 23.0 0.00 0.00 0.00 62 1009.4
20260503181106 55 226 9.0 23.0 0.00 0.00 0.00 61 1009.4
20260503181007 55 226 9.0 23.0 0.00 0.00 0.00 62 1009.4
20260503180906 55 223 8.0 23.0 0.00 0.00 0.00 62 1009.5
20260503180806 55 222 9.0 23.0 0.00 0.00 0.00 62 1009.5
20260503180707 55 226 9.0 23.0 0.00 0.00 0.00 62 1009.5
20260503180606 55 231 9.0 23.0 0.00 0.00 0.00 62 1009.5
20260503180506 55 232 9.0 23.0 0.00 0.00 0.00 61 1009.5
20260503180427 55 232 9.0 23.0 0.00 0.00 0.00 61 1009.5
20260503180306 55 232 8.0 23.0 0.00 0.00 0.00 60 1009.6
20260503180206 55 230 8.0 23.0 0.00 0.00 0.00 61 1009.6
20260503180106 55 226 7.0 23.0 0.00 0.00 0.00 62 1009.5
20260503180006 55 227 8.0 23.0 0.00 0.00 0.00 61 1009.5
20260503175906 55 230 8.0 23.0 0.00 0.00 0.00 60 1009.6
20260503175806 56 234 7.0 22.0 0.00 0.00 0.00 60 1009.6
20260503175706 56 229 7.0 18.0 0.00 0.00 0.00 60 1009.6
20260503175627 56 228 7.0 18.0 0.00 0.00 0.00 60 1009.6
20260503175506 56 227 8.0 19.0 0.00 0.00 0.00 61 1009.6
20260503175406 56 226 8.0 19.0 0.00 0.00 0.00 61 1009.6
20260503175306 55 225 8.0 19.0 0.00 0.00 0.00 61 1009.6
20260503175206 55 227 8.0 19.0 0.00 0.00 0.00 62 1009.6
20260503175106 55 228 8.0 19.0 0.00 0.00 0.00 61 1009.6
20260503175006 55 227 8.0 19.0 0.00 0.00 0.00 62 1009.7
20260503174906 55 226 8.0 19.0 0.00 0.00 0.00 62 1009.7
20260503174806 55 223 8.0 19.0 0.00 0.00 0.00 62 1009.7
20260503174707 55 222 8.0 19.0 0.00 0.00 0.00 62 1009.7
20260503174607 54 221 8.0 19.0 0.00 0.00 0.00 62 1009.7
20260503174506 54 219 8.0 17.0 0.00 0.00 0.00 63 1009.7
20260503174406 54 220 8.0 17.0 0.00 0.00 0.00 63 1009.7
20260503174306 54 220 8.0 17.0 0.00 0.00 0.00 63 1009.7
20260503174206 54 215 8.0 17.0 0.00 0.00 0.00 63 1009.7
20260503174106 54 219 8.0 17.0 0.00 0.00 0.00 63 1009.7
20260503174006 54 218 8.0 17.0 0.00 0.00 0.00 63 1009.8
20260503173906 54 216 8.0 17.0 0.00 0.00 0.00 63 1009.8
20260503173806 54 214 7.0 17.0 0.00 0.00 0.00 63 1009.7
20260503173706 54 215 7.0 16.0 0.00 0.00 0.00 63 1009.7
20260503173606 54 212 8.0 16.0 0.00 0.00 0.00 63 1009.7
20260503173527 54 216 8.0 21.0 0.00 0.00 0.00 63 1009.8
20260503173406 54 222 8.0 21.0 0.00 0.00 0.00 63 1009.8
20260503173306 54 226 7.0 21.0 0.00 0.00 0.00 63 1009.8
20260503173206 54 231 7.0 21.0 0.00 0.00 0.00 63 1009.8
20260503173106 54 229 7.0 21.0 0.00 0.00 0.00 63 1009.8
20260503173006 54 230 8.0 21.0 0.00 0.00 0.00 63 1009.8
20260503172906 54 230 7.0 21.0 0.00 0.00 0.00 63 1009.8
20260503172806 54 234 8.0 21.0 0.00 0.00 0.00 63 1009.9
20260503172706 54 236 8.0 21.0 0.00 0.00 0.00 63 1009.9
20260503172627 54 237 8.0 21.0 0.00 0.00 0.00 63 1009.9
20260503172506 54 233 8.0 18.0 0.00 0.00 0.00 64 1009.9
20260503172406 54 232 8.0 18.0 0.00 0.00 0.00 64 1009.9
20260503172327 53 228 8.0 18.0 0.00 0.00 0.00 64 1010.0
20260503172206 53 227 8.0 18.0 0.00 0.00 0.00 64 1009.9
20260503172106 53 228 8.0 18.0 0.00 0.00 0.00 64 1009.9
20260503172006 53 230 8.0 18.0 0.00 0.00 0.00 64 1009.9
20260503171907 53 232 9.0 18.0 0.00 0.00 0.00 64 1009.9
20260503171806 53 231 8.0 18.0 0.00 0.00 0.00 64 1009.9
20260503171706 53 228 8.0 18.0 0.00 0.00 0.00 63 1009.9
20260503171606 53 229 8.0 16.0 0.00 0.00 0.00 64 1009.9
20260503171506 53 228 8.0 16.0 0.00 0.00 0.00 64 1010.0
20260503171406 53 225 8.0 18.0 0.00 0.00 0.00 64 1010.0
20260503171306 53 227 8.0 18.0 0.00 0.00 0.00 64 1010.0
20260503171227 53 227 8.0 18.0 0.00 0.00 0.00 64 1010.2
20260503171106 53 225 8.0 18.0 0.00 0.00 0.00 64 1010.2
20260503171006 53 224 7.0 18.0 0.00 0.00 0.00 63 1010.2
20260503170906 53 223 7.0 18.0 0.00 0.00 0.00 64 1010.2
20260503170807 53 223 7.0 18.0 0.00 0.00 0.00 64 1010.2
20260503170706 53 224 7.0 18.0 0.00 0.00 0.00 64 1010.2
20260503170606 53 226 7.0 18.0 0.00 0.00 0.00 64 1010.2
20260503170506 53 228 6.0 18.0 0.00 0.00 0.00 64 1010.3
20260503170406 53 229 7.0 17.0 0.00 0.00 0.00 65 1010.2
20260503170327 53 229 7.0 17.0 0.00 0.00 0.00 65 1010.2
20260503170206 53 229 6.0 17.0 0.00 0.00 0.00 65 1010.3
20260503170106 52 227 7.0 17.0 0.00 0.00 0.00 66 1010.3
20260503160206 50 221 6.0 15.0 0.00 0.00 0.00 68 1010.4
20260503160106 50 217 6.0 15.0 0.00 0.00 0.00 68 1010.4
20260503151006 50 233 6.0 15.0 0.00 0.00 0.00 66 1011.0
20260503150906 50 230 6.0 15.0 0.00 0.00 0.00 66 1011.0
20260503150806 50 229 6.0 15.0 0.00 0.00 0.00 67 1010.9
20260503150706 50 226 6.0 15.0 0.00 0.00 0.00 67 1010.9
20260503150627 49 228 6.0 15.0 0.00 0.00 0.00 67 1011.0
20260503150506 49 230 6.0 16.0 0.00 0.00 0.00 68 1011.1
20260503150406 49 231 6.0 16.0 0.00 0.00 0.00 68 1011.1
20260503150306 49 236 6.0 16.0 0.00 0.00 0.00 68 1011.0
20260503150206 49 234 7.0 16.0 0.00 0.00 0.00 69 1011.0
20260503150106 49 233 7.0 16.0 0.00 0.00 0.00 69 1011.0
20260503140306 50 236 5.0 14.0 0.00 0.00 0.00 66 1010.6
20260503140206 50 238 6.0 14.0 0.00 0.00 0.00 65 1010.6
20260503140106 50 236 6.0 18.0 0.00 0.00 0.00 65 1010.7
20260503131406 48 246 6.0 14.0 0.00 0.00 0.00 69 1011.5
20260503131305 48 246 6.0 14.0 0.00 0.00 0.00 68 1011.5
20260503131226 48 245 6.0 14.0 0.00 0.00 0.00 68 1011.4
20260503131127 48 244 6.0 14.0 0.00 0.00 0.00 68 1011.4
20260503131006 48 241 6.0 14.0 0.00 0.00 0.00 67 1011.3
20260503130906 48 240 6.0 14.0 0.00 0.00 0.00 67 1011.4
20260503130806 48 240 6.0 14.0 0.00 0.00 0.00 67 1011.4
20260503130706 48 241 7.0 14.0 0.00 0.00 0.00 66 1011.3
20260503130626 48 241 7.0 14.0 0.00 0.00 0.00 66 1011.3
20260503130505 48 239 6.0 12.0 0.00 0.00 0.00 66 1011.3
20260503130426 48 237 6.0 12.0 0.00 0.00 0.00 65 1011.3
20260503130305 48 234 6.0 12.0 0.00 0.00 0.00 65 1011.1
20260503130206 49 231 6.0 12.0 0.00 0.00 0.00 65 1011.2
20260503130106 49 233 6.0 16.0 0.00 0.00 0.00 65 1011.2
20260503120205 48 219 4.0 11.0 0.00 0.00 0.00 66 1011.2
20260503120105 48 221 4.0 11.0 0.00 0.00 0.00 65 1011.2
20260503110805 47 247 4.0 13.0 0.00 0.00 0.00 67 1011.3
20260503110705 47 247 4.0 13.0 0.00 0.00 0.00 67 1011.3
20260503110605 47 245 4.0 13.0 0.00 0.00 0.00 67 1011.3
20260503110506 47 243 5.0 13.0 0.00 0.00 0.00 66 1011.3
20260503110427 47 242 5.0 13.0 0.00 0.00 0.00 66 1011.3
20260503110305 47 242 4.0 13.0 0.00 0.00 0.00 66 1011.2
20260503110205 47 243 5.0 12.0 0.00 0.00 0.00 66 1011.2
20260503110126 47 244 5.0 12.0 0.00 0.00 0.00 66 1011.3
20260503100205 47 249 4.0 12.0 0.00 0.00 0.00 66 1011.1
20260503100105 47 247 4.0 12.0 0.00 0.00 0.00 66 1011.1
20260503090505 47 246 6.0 14.0 0.00 0.00 0.00 66 1011.5
20260503090405 47 244 5.0 14.0 0.00 0.00 0.00 66 1011.5
20260503090305 47 243 6.0 12.0 0.00 0.00 0.00 66 1011.5
20260503090205 47 245 6.0 15.0 0.00 0.00 0.00 66 1011.5
20260503090105 47 244 5.0 15.0 0.00 0.00 0.00 65 1011.5
20260503081605 47 243 5.0 13.0 0.00 0.00 0.00 66 1011.8
20260503081505 47 243 5.0 13.0 0.00 0.00 0.00 66 1011.8
20260503081405 47 242 5.0 13.0 0.00 0.00 0.00 66 1011.8
20260503081305 47 241 5.0 13.0 0.00 0.00 0.00 66 1011.8
20260503081205 47 241 5.0 13.0 0.00 0.00 0.00 67 1011.8
20260503081105 47 244 5.0 11.0 0.00 0.00 0.00 67 1011.8
20260503081026 47 244 5.0 11.0 0.00 0.00 0.00 67 1011.8
20260503080926 47 246 5.0 11.0 0.00 0.00 0.00 68 1011.9
20260503080805 47 245 5.0 11.0 0.00 0.00 0.00 68 1011.8
20260503080705 47 244 5.0 12.0 0.00 0.00 0.00 68 1011.8
20260503080605 47 245 5.0 12.0 0.00 0.00 0.00 68 1011.8
20260503080505 47 242 5.0 12.0 0.00 0.00 0.00 68 1011.8
20260503080426 47 243 5.0 12.0 0.00 0.00 0.00 68 1011.8
20260503080305 47 244 5.0 12.0 0.00 0.00 0.00 68 1011.9
20260503080205 47 242 4.0 12.0 0.00 0.00 0.00 68 1011.8
20260503080105 47 238 4.0 12.0 0.00 0.00 0.00 68 1011.8
20260503072905 46 233 5.0 15.0 0.00 0.00 0.00 70 1012.1
20260503072805 46 231 4.0 15.0 0.00 0.00 0.00 71 1012.1
20260503072727 46 228 4.0 11.0 0.00 0.00 0.00 72 1011.9
20260503072605 46 226 4.0 11.0 0.00 0.00 0.00 72 1012.1
20260503072505 46 228 4.0 11.0 0.00 0.00 0.00 73 1012.1
20260503072405 46 233 4.0 11.0 0.00 0.00 0.00 72 1012.2
20260503072326 46 237 4.0 11.0 0.00 0.00 0.00 72 1012.2
20260503072205 46 238 4.0 11.0 0.00 0.00 0.00 72 1012.1
20260503072126 46 233 4.0 11.0 0.00 0.00 0.00 72 1012.1
20260503072005 46 223 3.0 8.0 0.00 0.00 0.00 72 1012.0
20260503071904 46 222 3.0 8.0 0.00 0.00 0.00 72 1012.0
20260503071805 46 220 4.0 8.0 0.00 0.00 0.00 72 1012.0
20260503071705 46 221 3.0 8.0 0.00 0.00 0.00 72 1012.1
20260503071626 46 222 3.0 8.0 0.00 0.00 0.00 71 1012.1
20260503071505 46 217 3.0 8.0 0.00 0.00 0.00 71 1012.2
20260503071405 46 215 3.0 10.0 0.00 0.00 0.00 71 1012.1
20260503071305 46 216 3.0 10.0 0.00 0.00 0.00 72 1012.0
20260503071205 46 212 3.0 10.0 0.00 0.00 0.00 72 1012.0
20260503071104 46 213 3.0 10.0 0.00 0.00 0.00 72 1012.2
20260503071004 46 215 3.0 10.0 0.00 0.00 0.00 72 1012.2
20260503070905 46 216 3.0 10.0 0.00 0.00 0.00 72 1012.1
20260503070805 46 221 4.0 10.0 0.00 0.00 0.00 71 1012.2
20260503070705 46 225 4.0 10.0 0.00 0.00 0.00 71 1012.2
20260503070626 46 227 4.0 10.0 0.00 0.00 0.00 71 1012.2
20260503070505 46 227 3.0 10.0 0.00 0.00 0.00 71 1012.2
20260503070405 46 225 3.0 9.0 0.00 0.00 0.00 71 1012.1
20260503070304 46 223 3.0 8.0 0.00 0.00 0.00 71 1012.2
20260503070205 46 223 3.0 8.0 0.00 0.00 0.00 72 1012.2
20260503070126 46 225 3.0 8.0 0.00 0.00 0.00 72 1012.3
20260503060326 42 191 1.0 7.0 0.00 0.00 0.00 68 1013.0
20260503060205 42 190 1.0 7.0 0.00 0.00 0.00 69 1013.1
20260503060105 42 193 1.0 7.0 0.00 0.00 0.00 69 1013.1
20260503055105 40 0 0.0 4.0 0.00 0.00 0.00 69 1013.2
20260503055025 40 0 0.0 4.0 0.00 0.00 0.00 69 1013.2
20260503054904 40 0 0.0 4.0 0.00 0.00 0.00 70 1013.2
20260503054804 40 0 0.0 4.0 0.00 0.00 0.00 70 1013.2
20260503054704 40 0 0.0 4.0 0.00 0.00 0.00 70 1013.2
20260503054605 40 0 0.0 4.0 0.00 0.00 0.00 70 1013.3
20260503054505 40 0 0.0 4.0 0.00 0.00 0.00 70 1013.3
20260503054405 40 0 0.0 3.0 0.00 0.00 0.00 71 1013.2
20260503054304 40 0 0.0 2.0 0.00 0.00 0.00 71 1013.3
20260503054204 40 0 0.0 2.0 0.00 0.00 0.00 71 1013.3
20260503054125 40 0 0.0 2.0 0.00 0.00 0.00 71 1013.3
20260503054004 40 0 0.0 2.0 0.00 0.00 0.00 72 1013.3
20260503053904 40 0 0.0 1.0 0.00 0.00 0.00 72 1013.3
20260503053805 40 0 0.0 1.0 0.00 0.00 0.00 72 1013.4
20260503053705 40 0 0.0 1.0 0.00 0.00 0.00 72 1013.4
20260503053605 40 0 0.0 1.0 0.00 0.00 0.00 72 1013.4
20260503053505 40 0 0.0 1.0 0.00 0.00 0.00 72 1013.4
20260503053405 40 0 0.0 1.0 0.00 0.00 0.00 72 1013.4
20260503053304 40 0 0.0 1.0 0.00 0.00 0.00 73 1013.4
20260503053226 40 0 0.0 1.0 0.00 0.00 0.00 73 1013.4
20260503053104 40 0 0.0 1.0 0.00 0.00 0.00 73 1013.4
20260503053004 40 0 0.0 1.0 0.00 0.00 0.00 73 1013.4
20260503052905 40 0 0.0 1.0 0.00 0.00 0.00 74 1013.4
20260503052805 40 0 0.0 0.0 0.00 0.00 0.00 74 1013.4
20260503052726 40 0 0.0 0.0 0.00 0.00 0.00 74 1013.4
20260503052605 40 0 0.0 1.0 0.00 0.00 0.00 74 1013.5
20260503052504 40 0 0.0 1.0 0.00 0.00 0.00 74 1013.5
20260503052404 40 0 0.0 1.0 0.00 0.00 0.00 75 1013.5
20260503052305 40 0 0.0 1.0 0.00 0.00 0.00 75 1013.5
20260503052204 40 0 0.0 1.0 0.00 0.00 0.00 75 1013.5
20260503052125 40 0 0.0 1.0 0.00 0.00 0.00 75 1013.5
20260503052005 40 0 0.0 1.0 0.00 0.00 0.00 75 1013.6
20260503051905 40 0 0.0 1.0 0.00 0.00 0.00 75 1013.6
20260503051805 40 0 0.0 1.0 0.00 0.00 0.00 76 1013.6
20260503051704 40 0 0.0 0.0 0.00 0.00 0.00 76 1013.6